Weather History for Fort Rucker / Ozark, AL

Change the Weather History Date:

Wednesday, October 19, 2011

  Actual Average (KDHN) Record (KDHN)
Temperature  
Mean Temperature 58 °F 66 °F  
Max Temperature 69 °F 79 °F 89 °F (1998)
Min Temperature 48 °F 54 °F 37 °F (1948)
Degree Days  
Heating Degree Days 6 2  
Month to date heating degree days 17  
Since 1 July heating degree days 19  
Cooling Degree Days 0 4  
Month to date cooling degree days 101  
Year to date cooling degree days 2329  
Growing Degree Days 8 (Base 50)    
Moisture  
Dew Point 46 °F    
Average Humidity 68    
Maximum Humidity 94    
Minimum Humidity 34    
Precipitation  
Precipitation 0.01 in 0.12 in 2.69 in (2004)
Month to date precipitation 2.06  
Year to date precipitation 44.04  
Sea Level Pressure  
Sea Level Pressure 29.67 in    
Wind  
Wind Speed 12 mph (NW)    
Max Wind Speed 22 mph    
Max Gust Speed 29 mph    
Visibility 10 miles    
Events Rain    
T = Trace of Precipitation, MM = Missing Value Source: NWS Daily Summary

Daily Weather History Graph

Daily Weather History Graph

Search for Another Location

Airport:

Trip Planner

Search our weather history database for the weather conditions in past years. The results will help you decide how hot, cold, wet, or windy it might be!

Date:

Astronomy

Oct. 19, 2011 Rise Set
Actual Time 6:48 AM CDT 6:06 PM CDT
Civil Twilight 6:24 AM CDT 6:31 PM CDT
Nautical Twilight 5:55 AM CDT 6:59 PM CDT
Astronomical Twilight 5:27 AM CDT 7:27 PM CDT
Moon No Moon Rise 1:08 PM CDT (10/19)
Length of Visible Light 12h 07m
Length of Day
11h 18m
Waning Gibbous, 54% of the Moon is Illuminated
Oct 19
Waning Gibbous
Oct 19
Last Quarter
Oct 26
New
Nov 2
First Quarter
Nov 10
Full

Hourly Weather History & Observations

Time (CDT) Temp. Dew Point Humidity Pressure Visibility Wind Dir Wind Speed Gust Speed Precip Events Conditions
12:41 AM 69.8 °F 66.2 °F 88% 29.52 in 10.0 mi NW 8.1 mph - N/A   Overcast
12:53 AM 69.1 °F 66.0 °F 90% 29.52 in 10.0 mi NNW 9.2 mph - N/A   Overcast
1:06 AM 68.0 °F 64.4 °F 88% 29.52 in 10.0 mi North 10.4 mph - N/A   Overcast
1:21 AM 68.0 °F 64.4 °F 88% 29.51 in 10.0 mi NNW 10.4 mph - N/A   Overcast
1:28 AM 68.0 °F 64.4 °F 88% 29.52 in 10.0 mi NNW 18.4 mph 24.2 mph N/A   Overcast
1:53 AM 62.6 °F 60.8 °F 94% 29.54 in 6.0 mi WNW 21.9 mph 28.8 mph N/A   Overcast
2:53 AM 57.2 °F 53.6 °F 88% 29.57 in 10.0 mi NW 13.8 mph 24.2 mph N/A   Overcast
3:19 AM 57.2 °F 51.8 °F 82% 29.57 in 10.0 mi NW 10.4 mph 24.2 mph N/A   Overcast
3:53 AM 55.0 °F 51.1 °F 86% 29.57 in 10.0 mi NW 12.7 mph 19.6 mph N/A   Overcast
4:01 AM 55.4 °F 50.0 °F 82% 29.58 in 10.0 mi NNW 10.4 mph 18.4 mph N/A   Overcast
4:53 AM 53.1 °F 48.9 °F 86% 29.60 in 5.0 mi NW 13.8 mph 23.0 mph 0.01 in Rain Rain
5:14 AM 51.8 °F 48.2 °F 88% 29.62 in 10.0 mi NW 12.7 mph - 0.00 in   Overcast
5:53 AM 52.0 °F 46.9 °F 83% 29.62 in 10.0 mi NNW 11.5 mph - 0.00 in   Overcast
6:53 AM 52.0 °F 46.0 °F 80% 29.64 in 10.0 mi WNW 12.7 mph 20.7 mph N/A   Overcast
7:53 AM 52.0 °F 45.0 °F 77% 29.65 in 10.0 mi NW 11.5 mph 18.4 mph N/A   Overcast
8:53 AM 53.1 °F 44.1 °F 71% 29.68 in 10.0 mi NNW 8.1 mph - N/A   Overcast
9:37 AM 55.4 °F 42.8 °F 63% 29.67 in 10.0 mi WNW 12.7 mph - N/A   Scattered Clouds
9:53 AM 55.9 °F 42.1 °F 60% 29.67 in 10.0 mi NW 11.5 mph 19.6 mph N/A   Scattered Clouds
10:53 AM 60.1 °F 39.9 °F 47% 29.68 in 10.0 mi NW 13.8 mph 21.9 mph N/A   Partly Cloudy
11:53 AM 61.0 °F 39.9 °F 46% 29.68 in 10.0 mi NW 16.1 mph 27.6 mph N/A   Partly Cloudy
12:53 PM 64.0 °F 39.0 °F 40% 29.68 in 10.0 mi West 16.1 mph 21.9 mph N/A   Partly Cloudy
1:53 PM 64.9 °F 36.0 °F 34% 29.67 in 10.0 mi WNW 16.1 mph - N/A   Clear
3:53 PM 64.4 °F 37.4 °F 37% 29.70 in 10.0 mi WNW 12.7 mph 21.9 mph N/A   Overcast
4:53 PM 60.1 °F 36.0 °F 41% 29.73 in 10.0 mi NW 10.4 mph 19.6 mph N/A   Overcast
5:53 PM 57.9 °F 36.0 °F 44% 29.78 in 10.0 mi NW 10.4 mph 20.7 mph N/A   Mostly Cloudy
6:53 PM 55.0 °F 33.1 °F 43% 29.83 in 10.0 mi WNW 15.0 mph 23.0 mph N/A   Overcast
7:53 PM 53.1 °F 32.0 °F 45% 29.86 in 10.0 mi WNW 9.2 mph - N/A   Mostly Cloudy
8:53 PM 52.0 °F 34.0 °F 50% 29.88 in 10.0 mi WNW 6.9 mph - N/A   Mostly Cloudy
9:53 PM 50.0 °F 35.1 °F 57% 29.91 in 10.0 mi WNW 5.8 mph - N/A   Clear
10:53 PM 48.0 °F 36.0 °F 63% 29.92 in 10.0 mi West 4.6 mph - N/A   Clear
11:53 PM 48.9 °F 37.0 °F 64% 29.92 in 10.0 mi WNW 10.4 mph 17.3 mph N/A   Clear